This demonstration page uses our WeatherBlox Daily Observations layout. Learn more.

Left ArrowRight Arrow

Hourly Observations for September 3, 2021

Temp ( °F °C ) Dew Point ( °F °C ) Humidity (%) Winds ( mph kmh ) Pressure ( in mb ) Visibility ( mi km ) Precip ( " mm )
12:53 am 00:53 Clear 68 20 66 18.9 93 93 Calm 29.88 1012 10 16 0.00 0.00
1:53 am 01:53 Clear 68 20 67 19.4 96 96 NW 6 9 29.89 1012 10 16 0.00 0.00
2:04 am 02:04 Partly Cloudy with Mist and Fog 68 20 67 19.4 96 96 NW 7 11 29.87 1011 3 4 0.00 0.00
2:10 am 02:10 Mostly Cloudy with Mist and Fog 68 20 66 19 94 94 NW 5 7 29.87 1011 1 2 0.00 0.00
2:20 am 02:20 Partly Cloudy with Mist and Fog 68 20 67 19.4 96 96 NW 3 6 29.87 1011 3 5 0.00 0.00
2:34 am 02:34 Mostly Cloudy 68 20 67 19.4 96 96 NW 5 7 29.87 1011 9 14 0.00 0.00
2:44 am 02:44 Partly Cloudy 67 19.4 66 18.9 97 97 NNW 7 11 29.87 1012 10 16 0.00 0.00
2:53 am 02:53 Mostly Cloudy 67 19.4 65 18.3 93 93 NNW 8 13 29.89 1012 10 16 0.00 0.00
3:03 am 03:03 Mostly Clear 67 19.4 65 18.3 93 93 NNW 7 11 29.88 1012 10 16 0.00 0.00
3:53 am 03:53 Mostly Clear 65 18.3 63 17.2 93 93 NNW 5 7 29.91 1013 10 16 0.00 0.00
4:53 am 04:53 Clear 65 18.3 62 16.7 90 90 NNW 9 15 29.91 1013 10 16 0.00 0.00
5:53 am 05:53 Clear 64 17.8 61 16.1 90 90 NNW 9 15 29.93 1014 10 16 0.00 0.00
6:28 am 06:28 Mostly Cloudy 64 18 63 17 94 94 NNW 5 7 29.93 1014 10 16 0.00 0.00
6:53 am 06:53 Cloudy 65 18.3 62 16.7 90 90 NNW 6 9 29.94 1014 10 16 0.00 0.00
7:49 am 07:49 Partly Cloudy 64 18 63 17 94 94 NNW 7 11 29.95 1014 10 16 0.00 0.00
7:53 am 07:53 Mostly Sunny 65 18.3 62 16.7 90 90 NNW 9 15 29.96 1015 10 16 0.00 0.00
8:17 am 08:17 Mostly Cloudy 65 18.3 62 16.7 90 90 NNW 12 19 29.96 1014 10 16 0.00 0.00
8:53 am 08:53 Cloudy 67 19.4 62 16.7 84 84 NNW 13 20 29.98 1015 10 16 0.00 0.00
9:53 am 09:53 Cloudy 68 20 62 16.7 81 81 NNW 15 24 29.98 1015 10 16 0.00 0.00
10:53 am 10:53 Mostly Cloudy 70 21.1 61 16.1 73 73 NNE 14 22 29.99 1016 10 16 0.00 0.00
11:53 am 11:53 Mostly Cloudy 72 22.2 62 16.7 71 71 N 13 20 30.00 1016 10 16 0.00 0.00
12:53 pm 12:53 Mostly Cloudy 74 23.3 62 16.7 67 67 N 10 17 29.99 1016 10 16 0.00 0.00
1:01 pm 13:01 Partly Cloudy 74 23.3 63 17.2 69 69 N 10 17 29.95 1014 10 16 0.00 0.00
1:51 pm 13:51 Mostly Cloudy 75 24 63 17 65 65 N 6 9 29.93 1013 10 16 0.00 0.00
1:53 pm 13:53 Mostly Cloudy 75 23.9 63 17.2 66 66 NNE 6 9 29.98 1015 10 16 0.00 0.00
2:53 pm 14:53 Cloudy 75 23.9 63 17.2 66 66 N 6 9 29.98 1015 10 16 0.00 0.00
3:53 pm 15:53 Mostly Cloudy 76 24.4 63 17.2 64 64 NNE 9 15 29.96 1014 10 16 0.00 0.00
4:49 pm 16:49 Mostly Sunny 77 25 63 17 61 61 NNW 9 15 29.88 1012 10 16 0.00 0.00
4:53 pm 16:53 Partly Cloudy 77 25 63 17.2 62 62 N 12 19 29.94 1014 10 16 0.00 0.00
5:53 pm 17:53 Sunny 77 25 62 16.7 60 60 N 8 13 29.93 1014 10 16 0.00 0.00
6:20 pm 18:20 Mostly Cloudy 76 24.4 63 17.2 64 64 NE 7 11 29.90 1012 10 16 0.00 0.00
6:28 pm 18:28 Mostly Cloudy 76 24.4 63 17.2 64 64 NNE 8 13 29.89 1012 10 16 0.00 0.00
6:53 pm 18:53 Mostly Sunny 72 22.2 63 17.2 73 73 NE 5 7 29.95 1014 10 16 0.00 0.00
7:53 pm 19:53 Sunny 71 21.7 65 18.3 81 81 Calm 29.97 1015 10 16 0.00 0.00
8:53 pm 20:53 Clear 68 20 64 17.8 87 87 NNE 6 9 29.98 1015 10 16 0.00 0.00
9:53 pm 21:53 Clear 67 19.4 63 17.2 87 87 E 5 7 29.98 1015 10 16 0.00 0.00
10:53 pm 22:53 Clear 65 18.3 63 17.2 93 93 ENE 3 6 29.98 1015 10 16 0.00 0.00
11:53 pm 23:53 Mostly Clear 65 18.3 63 17.2 93 93 ENE 3 6 29.97 1015 10 16 0.00 0.00

Powered by AerisWeather